This is the latest recevied weather packets stored in our database for station/object KD7CIH. If no packets are shown the sender has not sent any weather packets the latest 10 day(s).
| Time | Temp. | Humidity | Pressure | Rain* | Wind** | Luminosity | Snow |
|---|---|---|---|---|---|---|---|
| 1777454170 | -1.11° C | 76% | 1014.9 hPa | 0 mm | - | - | - |
| 1777453866 | -1.11° C | 75% | 1014.9 hPa | 0 mm | - | - | - |
| 1777453566 | -1.11° C | 75% | 1015.1 hPa | 0 mm | - | - | - |
| 1777453265 | -1.11° C | 74% | 1015.1 hPa | 0 mm | - | - | - |
| 1777452967 | -1.11° C | 72% | 1014.9 hPa | 0 mm | - | - | - |
| 1777452792 | -0.56° C | 69% | 1014.9 hPa | 0 mm | - | - | - |
| 1777452366 | 0.56° C | 69% | 1015.1 hPa | 0 mm | - | - | - |
| 1777452066 | 0.56° C | 69% | 1015.2 hPa | 0 mm | - | - | - |
| 1777451767 | 0° C | 70% | 1015.1 hPa | 0 mm | - | - | - |
| 1777451465 | 0° C | 70% | 1015.2 hPa | 0 mm | - | - | - |
| 1777451165 | 0° C | 69% | 1015.2 hPa | 0 mm | - | - | - |
| 1777450866 | 0° C | 70% | 1015.3 hPa | 0 mm | - | - | - |
| 1777450568 | 0° C | 70% | 1015.4 hPa | 0 mm | - | - | - |
| 1777450266 | 0.56° C | 69% | 1015.4 hPa | 0 mm | - | - | - |
| 1777449966 | 0.56° C | 68% | 1015.4 hPa | 0 mm | - | - | - |
| 1777449665 | 0.56° C | 69% | 1015.4 hPa | 0 mm | - | - | - |
| 1777449366 | 0.56° C | 71% | 1015.5 hPa | 0 mm | - | - | - |
| 1777449194 | 0.56° C | 71% | 1015.5 hPa | 0 mm | - | - | - |
| 1777448767 | 0.56° C | 70% | 1015.5 hPa | 0 mm | - | - | - |
| 1777448468 | 0.56° C | 69% | 1015.5 hPa | 0 mm | - | - | - |
| 1777448167 | 0.56° C | 69% | 1015.7 hPa | 0 mm | - | - | - |
| 1777447867 | 1.11° C | 69% | 1015.7 hPa | 0 mm | - | - | - |
| 1777447567 | 1.11° C | 68% | 1015.7 hPa | 0 mm | - | - | - |
| 1777447268 | 1.11° C | 68% | 1015.7 hPa | 0 mm | - | - | - |
| 1777446967 | 1.11° C | 67% | 1015.8 hPa | 0 mm | - | - | - |
* Rain latest hour (hover to see other rain measurements)
** Current wind speed in m/s (hover to see current wind gust speed)